When you browse on this site, cookies collect data to enhance your experience and personalize the content and advertising you see.
Visit our Privacy Policy to learn more. By continuing to use the site, you agree to this use of cookies and data.
  • In Österreich
  • Länderverzeichnis
  • Für 7 Tage
  • Wassertemperatur
  • Wetterkarte
  • News
  • Widgets
  • user-avatar
    Anmelden

    Stündliche Wetter Hlukhe

    Heute, 23 Februar, Sonntag

    Zeit Temperatur Niederschläge Wind Luftdruck Luftfeuchtigkeit
    00:00 +1°C° 0 mm 2 m/S 759 mmHg 89%
    01:00 +1°C° 0 mm 2 m/S 759 mmHg 90%
    02:00 -1°C° 0 mm 2 m/S 759 mmHg 89%
    03:00 -1°C° 0 mm 2 m/S 758 mmHg 88%
    04:00 -1°C° 0 mm 3 m/S 758 mmHg 86%
    05:00 -1°C° 0 mm 3 m/S 757 mmHg 85%
    06:00 -2°C° 0 mm 4 m/S 757 mmHg 82%
    07:00 -1°C° 0 mm 5 m/S 757 mmHg 79%
    08:00 -2°C° 0 mm 6 m/S 756 mmHg 76%
    09:00 -1°C° 0 mm 6 m/S 756 mmHg 71%
    10:00 0°C° 0 mm 7 m/S 756 mmHg 67%
    11:00 +2°C° 0 mm 7 m/S 755 mmHg 63%
    12:00 +2°C° 0 mm 8 m/S 754 mmHg 62%
    13:00 +2°C° 0 mm 8 m/S 754 mmHg 62%
    14:00 +3°C° 0 mm 9 m/S 753 mmHg 61%
    15:00 +3°C° 0 mm 9 m/S 753 mmHg 64%
    16:00 +4°C° 0 mm 8 m/S 752 mmHg 67%
    17:00 +2°C° 0 mm 8 m/S 752 mmHg 70%
    18:00 +2°C° 0 mm 8 m/S 751 mmHg 71%
    19:00 +2°C° 0 mm 8 m/S 751 mmHg 73%
    20:00 +2°C° 0 mm 7 m/S 751 mmHg 74%
    21:00 +2°C° 0 mm 7 m/S 751 mmHg 77%
    22:00 +2°C° 0 mm 7 m/S 750 mmHg 79%
    23:00 +2°C° 0 mm 7 m/S 749 mmHg 81%

    Morgen, 24 Februar, Montag

    Zeit Temperatur Niederschläge Wind Luftdruck Luftfeuchtigkeit
    00:00 +2°C° 0.2 mm 7 m/S 749 mmHg 83%
    01:00 +2°C° 0.2 mm 7 m/S 748 mmHg 85%
    02:00 +2°C° 0.2 mm 7 m/S 747 mmHg 87%
    03:00 +2°C° 0.1 mm 7 m/S 746 mmHg 87%
    04:00 +1°C° 0.1 mm 8 m/S 744 mmHg 87%
    05:00 +2°C° 0.1 mm 8 m/S 743 mmHg 87%
    06:00 +2°C° 0.4 mm 9 m/S 742 mmHg 87%
    07:00 +2°C° 0.4 mm 10 m/S 741 mmHg 88%
    08:00 +2°C° 0.4 mm 10 m/S 739 mmHg 88%
    09:00 +2°C° 1.5 mm 10 m/S 738 mmHg 90%
    10:00 +2°C° 1.5 mm 9 m/S 736 mmHg 91%
    11:00 +4°C° 1.5 mm 8 m/S 735 mmHg 93%
    12:00 +4°C° 0.5 mm 8 m/S 734 mmHg 87%
    13:00 +5°C° 0.5 mm 8 m/S 733 mmHg 81%
    14:00 +5°C° 0.5 mm 9 m/S 733 mmHg 75%
    15:00 +3°C° 0.3 mm 11 m/S 733 mmHg 80%
    16:00 0°C° 0.3 mm 13 m/S 734 mmHg 85%
    17:00 -1°C° 0.3 mm 15 m/S 734 mmHg 90%
    18:00 -1°C° 0.3 mm 15 m/S 736 mmHg 85%
    19:00 -1°C° 0.3 mm 14 m/S 737 mmHg 80%
    20:00 -1°C° 0.3 mm 14 m/S 739 mmHg 75%
    21:00 -1°C° 0 mm 14 m/S 740 mmHg 74%
    22:00 -1°C° 0 mm 13 m/S 741 mmHg 73%
    23:00 -1°C° 0 mm 13 m/S 743 mmHg 72%

    übermorgen, 25 Februar, Dienstag

    Zeit Temperatur Niederschläge Wind Luftdruck Luftfeuchtigkeit
    00:00 -1°C° 0 mm 12 m/S 744 mmHg 72%
    01:00 -2°C° 0 mm 10 m/S 746 mmHg 72%
    02:00 -1°C° 0 mm 9 m/S 747 mmHg 71%
    03:00 -1°C° 0 mm 9 m/S 748 mmHg 74%
    04:00 -2°C° 0 mm 8 m/S 748 mmHg 76%
    05:00 -2°C° 0 mm 7 m/S 749 mmHg 78%
    06:00 -2°C° 0 mm 7 m/S 750 mmHg 77%
    07:00 -2°C° 0 mm 6 m/S 751 mmHg 75%
    08:00 -2°C° 0 mm 6 m/S 752 mmHg 74%
    09:00 0°C° 0 mm 5 m/S 752 mmHg 68%
    10:00 +1°C° 0 mm 5 m/S 752 mmHg 63%
    11:00 +2°C° 0 mm 5 m/S 752 mmHg 58%
    12:00 +3°C° 0 mm 5 m/S 752 mmHg 55%
    13:00 +3°C° 0 mm 5 m/S 752 mmHg 53%
    14:00 +5°C° 0 mm 5 m/S 752 mmHg 50%
    15:00 +3°C° 0 mm 5 m/S 752 mmHg 52%
    16:00 +3°C° 0 mm 5 m/S 751 mmHg 54%
    17:00 +4°C° 0 mm 4 m/S 751 mmHg 57%
    18:00 +2°C° 0 mm 5 m/S 751 mmHg 62%
    19:00 +2°C° 0 mm 5 m/S 751 mmHg 66%
    20:00 +1°C° 0 mm 6 m/S 751 mmHg 71%
    21:00 +1°C° 0 mm 6 m/S 750 mmHg 74%
    22:00 +1°C° 0 mm 6 m/S 750 mmHg 78%
    23:00 +1°C° 0 mm 6 m/S 749 mmHg 81%

    26 Februar, Mittwoch

    Zeit Temperatur Niederschläge Wind Luftdruck Luftfeuchtigkeit
    00:00 +1°C° 0 mm 6 m/S 749 mmHg 83%
    01:00 +1°C° 0 mm 6 m/S 749 mmHg 85%
    02:00 +1°C° 0 mm 6 m/S 749 mmHg 87%
    03:00 +1°C° 0 mm 6 m/S 748 mmHg 86%
    04:00 +1°C° 0 mm 6 m/S 747 mmHg 86%
    05:00 0°C° 0 mm 7 m/S 747 mmHg 86%
    06:00 0°C° 0 mm 7 m/S 747 mmHg 82%
    07:00 0°C° 0 mm 7 m/S 746 mmHg 78%
    08:00 +2°C° 0 mm 7 m/S 746 mmHg 74%
    09:00 +2°C° 0 mm 8 m/S 746 mmHg 68%
    10:00 +4°C° 0 mm 8 m/S 746 mmHg 62%
    11:00 +5°C° 0 mm 8 m/S 745 mmHg 56%
    12:00 +7°C° 0 mm 8 m/S 745 mmHg 53%
    13:00 +9°C° 0 mm 8 m/S 744 mmHg 50%
    14:00 +10°C° 0 mm 8 m/S 744 mmHg 47%
    15:00 +9°C° 0 mm 8 m/S 744 mmHg 52%
    16:00 +8°C° 0 mm 7 m/S 743 mmHg 56%
    17:00 +8°C° 0 mm 6 m/S 743 mmHg 60%
    18:00 +7°C° 0 mm 6 m/S 743 mmHg 65%
    19:00 +5°C° 0 mm 6 m/S 743 mmHg 69%
    20:00 +4°C° 0 mm 6 m/S 744 mmHg 74%
    21:00 +5°C° 0 mm 5 m/S 744 mmHg 78%
    22:00 +3°C° 0 mm 5 m/S 744 mmHg 82%
    23:00 +3°C° 0 mm 5 m/S 744 mmHg 86%

    27 Februar, Donnerstag

    Zeit Temperatur Niederschläge Wind Luftdruck Luftfeuchtigkeit
    00:00 +3°C° 0 mm 5 m/S 744 mmHg 88%
    01:00 +4°C° 0 mm 4 m/S 744 mmHg 90%
    02:00 +4°C° 0 mm 4 m/S 744 mmHg 92%
    03:00 +4°C° 0 mm 4 m/S 743 mmHg 92%
    04:00 +4°C° 0 mm 4 m/S 743 mmHg 92%
    05:00 +3°C° 0 mm 4 m/S 743 mmHg 92%
    06:00 +3°C° 0 mm 5 m/S 743 mmHg 89%
    07:00 +5°C° 0 mm 5 m/S 743 mmHg 86%
    08:00 +4°C° 0 mm 6 m/S 743 mmHg 83%
    09:00 +5°C° 0 mm 6 m/S 743 mmHg 81%
    10:00 +7°C° 0 mm 6 m/S 742 mmHg 79%
    11:00 +8°C° 0 mm 7 m/S 742 mmHg 77%
    12:00 +9°C° 0 mm 7 m/S 742 mmHg 78%
    13:00 +9°C° 0 mm 7 m/S 742 mmHg 79%
    14:00 +9°C° 0 mm 7 m/S 741 mmHg 79%
    15:00 +9°C° 0 mm 7 m/S 741 mmHg 80%
    16:00 +9°C° 0 mm 7 m/S 741 mmHg 81%
    17:00 +10°C° 0 mm 7 m/S 741 mmHg 82%
    18:00 +9°C° 0 mm 7 m/S 741 mmHg 82%
    19:00 +9°C° 0 mm 8 m/S 741 mmHg 82%
    20:00 +9°C° 0 mm 8 m/S 741 mmHg 82%
    21:00 +9°C° 0 mm 8 m/S 741 mmHg 84%
    22:00 +7°C° 0 mm 8 m/S 741 mmHg 85%
    23:00 +7°C° 0 mm 8 m/S 741 mmHg 86%

    28 Februar, Freitag

    Zeit Temperatur Niederschläge Wind Luftdruck Luftfeuchtigkeit
    00:00 +7°C° 0.6 mm 8 m/S 741 mmHg 87%
    01:00 +7°C° 0.6 mm 8 m/S 741 mmHg 89%
    02:00 +6°C° 0.6 mm 8 m/S 740 mmHg 90%
    03:00 +6°C° 0.3 mm 8 m/S 740 mmHg 89%
    04:00 +6°C° 0.3 mm 7 m/S 739 mmHg 87%
    05:00 +6°C° 0.3 mm 7 m/S 738 mmHg 86%
    06:00 +6°C° 0 mm 7 m/S 738 mmHg 84%
    07:00 +6°C° 0 mm 7 m/S 738 mmHg 81%
    08:00 +6°C° 0 mm 8 m/S 738 mmHg 79%
    09:00 +6°C° 0.1 mm 7 m/S 739 mmHg 77%
    10:00 +7°C° 0.1 mm 6 m/S 739 mmHg 75%
    11:00 +7°C° 0.1 mm 6 m/S 739 mmHg 73%
    12:00 +5°C° 0.1 mm 7 m/S 740 mmHg 77%
    13:00 +2°C° 0.1 mm 9 m/S 740 mmHg 81%
    14:00 +1°C° 0.1 mm 11 m/S 741 mmHg 84%
    15:00 +1°C° 0 mm 9 m/S 742 mmHg 78%
    16:00 +1°C° 0 mm 8 m/S 743 mmHg 72%
    17:00 +3°C° 0 mm 7 m/S 744 mmHg 65%
    18:00 +2°C° 0 mm 6 m/S 745 mmHg 66%
    19:00 +2°C° 0 mm 6 m/S 746 mmHg 68%
    20:00 +1°C° 0 mm 5 m/S 747 mmHg 69%
    21:00 +1°C° 0 mm 5 m/S 747 mmHg 69%
    22:00 +1°C° 0 mm 5 m/S 747 mmHg 70%
    23:00 0°C° 0 mm 5 m/S 747 mmHg 71%
    Mehr zeigen